| time (UTC) | temp F | wind direction | speed MPH | gust MPH | rain 1hr in | rain 24hr in | rain mn in | humidity % | barometer mb |
| 20260508113019 | 44 | 5 | 0.0 | 0.0 | 0.00 | 0.09 | 0.00 | 99 | 1016.8 |
| 20260508112513 | 44 | 5 | 0.0 | 0.0 | 0.00 | 0.10 | 0.00 | 99 | 1016.8 |
| 20260508112007 | 44 | 5 | 0.0 | 0.0 | 0.00 | 0.11 | 0.00 | 99 | 1016.6 |
| 20260508111504 | 43 | 5 | 0.0 | 0.0 | 0.00 | 0.12 | 0.00 | 99 | 1016.5 |
| 20260508111225 | 43 | 5 | 0.0 | 0.0 | 0.00 | 0.13 | 0.00 | 99 | 1016.4 |
| 20260508110450 | 43 | 5 | 0.0 | 0.0 | 0.00 | 0.14 | 0.00 | 99 | 1016.4 |
| 20260508105943 | 43 | 5 | 0.0 | 0.0 | 0.00 | 0.15 | 0.00 | 99 | 1016.4 |
| 20260508105437 | 43 | 5 | 0.0 | 0.0 | 0.00 | 0.15 | 0.00 | 98 | 1016.3 |
| 20260508105201 | 43 | 5 | 0.0 | 0.0 | 0.00 | 0.15 | 0.00 | 98 | 1016.3 |
| 20260508104425 | 42 | 5 | 0.0 | 0.0 | 0.00 | 0.15 | 0.00 | 98 | 1016.1 |
| 20260508103413 | 43 | 5 | 0.0 | 0.0 | 0.00 | 0.15 | 0.00 | 98 | 1015.8 |
| 20260508103137 | 43 | 5 | 0.0 | 0.0 | 0.00 | 0.15 | 0.00 | 98 | 1015.8 |
| 20260508102400 | 43 | 5 | 0.0 | 0.0 | 0.00 | 0.15 | 0.00 | 98 | 1015.6 |
| 20260508101620 | 43 | 5 | 0.0 | 0.0 | 0.00 | 0.16 | 0.00 | 98 | 1015.6 |
| 20260508100844 | 43 | 5 | 0.0 | 0.0 | 0.00 | 0.17 | 0.00 | 98 | 1015.4 |
| 20260508100337 | 43 | 5 | 0.0 | 0.0 | 0.00 | 0.17 | 0.00 | 98 | 1015.3 |
| 20260508095831 | 44 | 5 | 0.0 | 0.0 | 0.00 | 0.20 | 0.00 | 98 | 1015.1 |
| 20260508095325 | 44 | 5 | 0.0 | 0.0 | 0.00 | 0.20 | 0.00 | 98 | 1015.1 |
| 20260508094819 | 44 | 5 | 0.0 | 0.0 | 0.00 | 0.20 | 0.00 | 98 | 1015.2 |
| 20260508094312 | 44 | 5 | 0.0 | 0.0 | 0.00 | 0.20 | 0.00 | 98 | 1015.2 |
| 20260508093807 | 44 | 5 | 0.0 | 0.0 | 0.00 | 0.20 | 0.00 | 98 | 1015.1 |
| 20260508093301 | 44 | 5 | 0.0 | 0.0 | 0.00 | 0.20 | 0.00 | 98 | 1015.1 |
| 20260508092250 | 44 | 5 | 0.0 | 0.0 | 0.00 | 0.20 | 0.00 | 98 | 1015.1 |
| 20260508091743 | 44 | 5 | 0.0 | 0.0 | 0.00 | 0.20 | 0.00 | 98 | 1015.1 |
| 20260508091237 | 44 | 5 | 0.0 | 0.0 | 0.00 | 0.20 | 0.00 | 98 | 1015.1 |
| 20260508090731 | 44 | 5 | 0.0 | 0.0 | 0.00 | 0.20 | 0.00 | 98 | 1015.0 |
| 20260508090225 | 44 | 5 | 0.0 | 0.0 | 0.00 | 0.20 | 0.00 | 98 | 1015.1 |
| 20260508085720 | 44 | 5 | 0.0 | 0.0 | 0.00 | 0.20 | 0.00 | 98 | 1014.9 |
| 20260508085450 | 44 | 5 | 0.0 | 0.0 | 0.00 | 0.20 | 0.00 | 98 | 1014.9 |
| 20260508084721 | 44 | 5 | 0.0 | 0.0 | 0.00 | 0.20 | 0.00 | 98 | 1014.9 |
| 20260508084218 | 44 | 5 | 0.0 | 0.0 | 0.00 | 0.20 | 0.00 | 97 | 1014.9 |
| 20260508083948 | 44 | 5 | 0.0 | 0.0 | 0.00 | 0.20 | 0.00 | 98 | 1014.8 |
| 20260508082715 | 44 | 5 | 0.0 | 0.0 | 0.00 | 0.20 | 0.00 | 97 | 1014.7 |
| 20260508082220 | 44 | 5 | 0.0 | 0.0 | 0.00 | 0.20 | 0.00 | 97 | 1014.8 |
| 20260508081717 | 45 | 5 | 0.0 | 0.0 | 0.00 | 0.20 | 0.00 | 97 | 1014.6 |
| 20260508081214 | 45 | 5 | 0.0 | 0.0 | 0.00 | 0.20 | 0.00 | 97 | 1014.7 |
| 20260508080944 | 45 | 5 | 0.0 | 0.0 | 0.00 | 0.20 | 0.00 | 97 | 1014.6 |
| 20260508080213 | 45 | 5 | 0.0 | 0.0 | 0.00 | 0.21 | 0.00 | 97 | 1014.5 |
| 20260508075713 | 45 | 5 | 0.0 | 0.0 | 0.00 | 0.21 | 0.00 | 97 | 1014.5 |
| 20260508075214 | 46 | 5 | 0.0 | 0.0 | 0.00 | 0.21 | 0.00 | 97 | 1014.6 |
| 20260508074711 | 46 | 5 | 0.0 | 0.0 | 0.00 | 0.21 | 0.00 | 97 | 1014.5 |
| 20260508074210 | 46 | 5 | 0.0 | 0.0 | 0.00 | 0.21 | 0.00 | 97 | 1014.5 |
| 20260508073708 | 46 | 5 | 0.0 | 0.0 | 0.00 | 0.21 | 0.00 | 97 | 1014.4 |
| 20260508073208 | 46 | 5 | 0.0 | 0.0 | 0.00 | 0.21 | 0.00 | 97 | 1014.4 |
| 20260508072703 | 46 | 5 | 0.0 | 0.0 | 0.00 | 0.21 | 0.00 | 97 | 1014.3 |
| 20260508072434 | 46 | 5 | 0.0 | 0.0 | 0.00 | 0.21 | 0.00 | 97 | 1014.3 |
| 20260508071704 | 46 | 5 | 0.0 | 0.0 | 0.00 | 0.21 | 0.00 | 97 | 1014.2 |
| 20260508071203 | 47 | 5 | 0.0 | 0.0 | 0.00 | 0.21 | 0.00 | 97 | 1014.3 |
| 20260508070704 | 47 | 5 | 0.0 | 0.0 | 0.00 | 0.21 | 0.00 | 97 | 1014.2 |
| 20260508070203 | 47 | 5 | 0.0 | 0.0 | 0.00 | 0.21 | 0.00 | 97 | 1014.2 |
| 20260508065703 | 47 | 5 | 0.0 | 0.0 | 0.00 | 0.21 | 0.00 | 97 | 1014.1 |
| 20260508065204 | 47 | 5 | 0.0 | 0.0 | 0.00 | 0.21 | 0.00 | 97 | 1014.1 |
| 20260508064705 | 48 | 5 | 0.0 | 0.0 | 0.00 | 0.21 | 0.00 | 97 | 1014.0 |
| 20260508064205 | 48 | 5 | 0.0 | 0.0 | 0.00 | 0.21 | 0.00 | 97 | 1014.1 |
| 20260508063705 | 48 | 5 | 0.0 | 0.0 | 0.00 | 0.21 | 0.00 | 97 | 1014.1 |
| 20260508063434 | 48 | 5 | 0.0 | 0.0 | 0.00 | 0.22 | 0.00 | 97 | 1014.1 |
| 20260508062935 | 47 | 5 | 0.0 | 0.0 | 0.00 | 0.22 | 0.00 | 97 | 1014.1 |
| 20260508062204 | 47 | 0 | 0.0 | 0.0 | 0.00 | 0.22 | 0.00 | 96 | 1014.0 |
| 20260508061705 | 47 | 0 | 0.0 | 0.0 | 0.00 | 0.22 | 0.00 | 96 | 1013.9 |
| 20260508061203 | 47 | 0 | 0.0 | 0.0 | 0.00 | 0.23 | 0.00 | 96 | 1014.0 |
| 20260508060705 | 47 | 0 | 0.0 | 0.0 | 0.00 | 0.23 | 0.00 | 96 | 1014.0 |
| 20260508060437 | 47 | 0 | 0.0 | 0.0 | 0.00 | 0.23 | 0.00 | 96 | 1014.0 |
| 20260508055700 | 48 | 0 | 0.0 | 0.0 | 0.00 | 0.25 | 0.00 | 96 | 1014.2 |
| 20260508055153 | 48 | 0 | 0.0 | 0.0 | 0.00 | 0.25 | 0.00 | 96 | 1014.0 |
| 20260508054648 | 48 | 0 | 0.0 | 0.0 | 0.00 | 0.26 | 0.00 | 96 | 1014.1 |
| 20260508054142 | 48 | 0 | 0.0 | 0.0 | 0.00 | 0.26 | 0.00 | 96 | 1014.1 |
| 20260508053636 | 48 | 0 | 0.0 | 0.0 | 0.00 | 0.26 | 0.00 | 95 | 1014.1 |
| 20260508053130 | 48 | 0 | 0.0 | 0.0 | 0.00 | 0.26 | 0.00 | 95 | 1014.0 |
| 20260508052625 | 48 | 0 | 0.0 | 0.0 | 0.00 | 0.27 | 0.00 | 96 | 1014.1 |
| 20260508052118 | 49 | 0 | 0.0 | 0.0 | 0.00 | 0.27 | 0.00 | 95 | 1014.0 |
| 20260508051612 | 49 | 0 | 0.0 | 0.0 | 0.00 | 0.27 | 0.00 | 95 | 1013.9 |
| 20260508051338 | 49 | 0 | 0.0 | 0.0 | 0.00 | 0.27 | 0.00 | 95 | 1013.9 |
| 20260508050600 | 49 | 0 | 0.0 | 0.0 | 0.00 | 0.27 | 0.00 | 95 | 1013.8 |
| 20260508050059 | 49 | 0 | 0.0 | 0.0 | 0.00 | 0.27 | 0.00 | 94 | 1013.8 |
| 20260508045555 | 49 | 0 | 0.0 | 0.0 | 0.00 | 0.28 | 0.00 | 94 | 1013.9 |
| 20260508045054 | 49 | 0 | 0.0 | 0.0 | 0.00 | 0.28 | 0.00 | 94 | 1013.9 |
| 20260508044551 | 49 | 0 | 0.0 | 0.0 | 0.00 | 0.29 | 0.00 | 93 | 1013.8 |
| 20260508044051 | 50 | 0 | 0.0 | 0.0 | 0.00 | 0.29 | 0.00 | 93 | 1013.6 |
| 20260508043551 | 50 | 0 | 0.0 | 0.0 | 0.00 | 0.29 | 0.00 | 93 | 1013.7 |
| 20260508043052 | 50 | 0 | 0.0 | 0.0 | 0.00 | 0.29 | 0.00 | 93 | 1013.7 |
| 20260508042552 | 51 | 0 | 0.0 | 0.0 | 0.00 | 0.29 | 0.00 | 92 | 1013.7 |
| 20260508042321 | 51 | 0 | 0.0 | 0.0 | 0.00 | 0.29 | 0.00 | 92 | 1013.5 |
| 20260508041549 | 51 | 0 | 0.0 | 0.0 | 0.00 | 0.29 | 0.00 | 91 | 1013.5 |
| 20260508041049 | 52 | 0 | 0.0 | 0.0 | 0.00 | 0.29 | 0.00 | 90 | 1013.5 |
| 20260508040829 | 52 | 0 | 0.0 | 0.0 | 0.00 | 0.29 | 0.00 | 89 | 1013.4 |
| 20260508040047 | 53 | 0 | 0.0 | 0.0 | 0.00 | 0.29 | 0.00 | 87 | 1013.5 |
| 20260508035546 | 53 | 0 | 0.0 | 0.0 | 0.00 | 0.29 | 0.29 | 88 | 1013.5 |
| 20260508035317 | 52 | 21 | 0.0 | 0.0 | 0.00 | 0.29 | 0.29 | 89 | 1013.6 |
| 20260508034544 | 52 | 21 | 0.0 | 0.0 | 0.00 | 0.29 | 0.29 | 89 | 1013.5 |
| 20260508034044 | 53 | 21 | 0.0 | 0.0 | 0.00 | 0.29 | 0.29 | 89 | 1013.6 |
| 20260508033542 | 53 | 21 | 0.0 | 0.0 | 0.00 | 0.29 | 0.29 | 87 | 1013.5 |
| 20260508033040 | 53 | 21 | 0.0 | 0.0 | 0.00 | 0.29 | 0.29 | 87 | 1013.5 |
| 20260508032537 | 53 | 21 | 0.0 | 0.0 | 0.00 | 0.29 | 0.29 | 87 | 1013.5 |
| 20260508032031 | 53 | 22 | 0.0 | 0.0 | 0.00 | 0.29 | 0.29 | 88 | 1013.4 |
| 20260508031525 | 54 | 22 | 0.0 | 0.0 | 0.00 | 0.29 | 0.29 | 86 | 1013.4 |
| 20260508031250 | 55 | 22 | 0.0 | 4.0 | 0.00 | 0.29 | 0.29 | 85 | 1013.3 |
| 20260508030513 | 56 | 24 | 0.0 | 4.0 | 0.00 | 0.29 | 0.29 | 83 | 1013.3 |
| 20260508030007 | 56 | 9 | 0.0 | 0.0 | 0.00 | 0.29 | 0.29 | 82 | 1013.2 |
| 20260508025733 | 56 | 9 | 0.0 | 0.0 | 0.00 | 0.29 | 0.29 | 78 | 1013.2 |
| 20260508024955 | 56 | 10 | 0.0 | 0.0 | 0.00 | 0.29 | 0.29 | 80 | 1013.2 |
| 20260508024449 | 57 | 10 | 0.0 | 0.0 | 0.00 | 0.29 | 0.29 | 79 | 1013.2 |
| 20260508023943 | 58 | 10 | 0.0 | 2.0 | 0.00 | 0.29 | 0.29 | 75 | 1013.2 |
| 20260508023708 | 59 | 10 | 0.0 | 2.0 | 0.00 | 0.29 | 0.29 | 70 | 1013.1 |
| 20260508022931 | 59 | 5 | 0.0 | 3.0 | 0.00 | 0.30 | 0.29 | 69 | 1013.0 |
| 20260508022656 | 59 | 316 | 0.0 | 3.0 | 0.00 | 0.32 | 0.29 | 70 | 1012.9 |
| 20260508021919 | 59 | 293 | 0.0 | 1.0 | 0.00 | 0.36 | 0.29 | 71 | 1013.0 |
| 20260508021420 | 58 | 295 | 0.0 | 6.0 | 0.00 | 0.38 | 0.29 | 71 | 1012.8 |
| 20260508020916 | 58 | 321 | 0.0 | 6.0 | 0.00 | 0.39 | 0.29 | 72 | 1012.7 |
| 20260508020646 | 57 | 267 | 0.0 | 1.0 | 0.00 | 0.40 | 0.29 | 76 | 1012.8 |
| 20260508015913 | 58 | 333 | 0.0 | 0.0 | 0.00 | 0.40 | 0.29 | 75 | 1012.6 |
| 20260508015413 | 58 | 333 | 0.0 | 0.0 | 0.00 | 0.40 | 0.29 | 74 | 1012.5 |
| 20260508014908 | 57 | 0 | 0.0 | 0.0 | 0.00 | 0.40 | 0.29 | 77 | 1012.5 |
| 20260508014406 | 57 | 0 | 0.0 | 0.0 | 0.00 | 0.41 | 0.29 | 75 | 1012.3 |
| 20260508013904 | 58 | 0 | 0.0 | 0.0 | 0.00 | 0.41 | 0.29 | 74 | 1012.2 |
| 20260508013401 | 59 | 0 | 0.0 | 0.0 | 0.00 | 0.41 | 0.29 | 77 | 1012.2 |
| 20260508012900 | 60 | 0 | 0.0 | 0.0 | 0.00 | 0.41 | 0.29 | 72 | 1012.1 |
| 20260508012358 | 60 | 0 | 0.0 | 2.0 | 0.00 | 0.42 | 0.29 | 70 | 1011.8 |
| 20260508011857 | 60 | 0 | 0.0 | 4.0 | 0.00 | 0.44 | 0.29 | 69 | 1011.6 |
| 20260508011357 | 60 | 9 | 0.0 | 4.0 | 0.00 | 0.44 | 0.29 | 69 | 1011.6 |
| 20260508010857 | 60 | 355 | 0.0 | 2.0 | 0.00 | 0.45 | 0.29 | 70 | 1011.5 |
| 20260508010354 | 61 | 355 | 0.0 | 2.0 | 0.00 | 0.45 | 0.29 | 69 | 1011.5 |
| 20260508005855 | 62 | 0 | 0.0 | 6.0 | 0.00 | 0.45 | 0.29 | 68 | 1011.5 |
| 20260508005353 | 62 | 10 | 0.0 | 6.0 | 0.00 | 0.49 | 0.29 | 66 | 1011.3 |
| 20260508004854 | 62 | 33 | 0.0 | 2.0 | 0.00 | 0.52 | 0.29 | 67 | 1011.2 |
| 20260508004625 | 62 | 344 | 1.0 | 11.0 | 0.00 | 0.53 | 0.29 | 64 | 1011.2 |
| 20260508003854 | 63 | 345 | 2.0 | 11.0 | 0.00 | 0.54 | 0.29 | 64 | 1010.9 |
| 20260508003356 | 63 | 5 | 2.0 | 11.0 | 0.00 | 0.54 | 0.29 | 67 | 1010.9 |
| 20260508002849 | 63 | 313 | 1.0 | 11.0 | 0.00 | 0.54 | 0.29 | 68 | 1011.0 |
| 20260508002347 | 63 | 330 | 0.0 | 5.0 | 0.00 | 0.54 | 0.29 | 69 | 1010.8 |
| 20260508002118 | 64 | 346 | 1.0 | 10.0 | 0.00 | 0.54 | 0.29 | 69 | 1010.7 |
| 20260508001348 | 64 | 342 | 2.0 | 13.0 | 0.00 | 0.56 | 0.29 | 68 | 1010.4 |
| 20260508000846 | 64 | 310 | 1.0 | 13.0 | 0.00 | 0.58 | 0.29 | 68 | 1010.4 |
| 20260508000346 | 65 | 0 | 0.0 | 5.0 | 0.00 | 0.60 | 0.29 | 69 | 1010.3 |
| 20260507235843 | 65 | 5 | 0.0 | 8.0 | 0.00 | 0.60 | 0.29 | 69 | 1010.3 |
| 20260507235343 | 65 | 324 | 0.0 | 8.0 | 0.00 | 0.60 | 0.29 | 68 | 1010.1 |
| 20260507234843 | 66 | 300 | 1.0 | 12.0 | 0.00 | 0.60 | 0.29 | 68 | 1010.0 |
| 20260507234343 | 66 | 281 | 1.0 | 12.0 | 0.00 | 0.61 | 0.29 | 67 | 1010.0 |
| 20260507233844 | 66 | 295 | 2.0 | 12.0 | 0.00 | 0.62 | 0.29 | 67 | 1010.0 |
| 20260507233345 | 67 | 355 | 2.0 | 11.0 | 0.00 | 0.64 | 0.29 | 66 | 1009.8 |
| 20260507232839 | 67 | 303 | 1.0 | 9.0 | 0.00 | 0.66 | 0.29 | 66 | 1009.8 |
| 20260507232340 | 68 | 327 | 2.0 | 12.0 | 0.00 | 0.69 | 0.29 | 66 | 1009.5 |
| 20260507231841 | 68 | 294 | 4.0 | 14.0 | 0.00 | 0.71 | 0.29 | 65 | 1009.4 |
| 20260507231340 | 68 | 266 | 4.0 | 14.0 | 0.00 | 0.74 | 0.29 | 66 | 1009.3 |
| 20260507230841 | 69 | 281 | 2.0 | 14.0 | 0.00 | 0.81 | 0.29 | 67 | 1009.5 |
| 20260507230340 | 69 | 333 | 2.0 | 9.0 | 0.00 | 0.83 | 0.29 | 65 | 1009.2 |
| 20260507225840 | 70 | 288 | 2.0 | 12.0 | 0.00 | 0.85 | 0.29 | 66 | 1009.2 |
| 20260507225340 | 70 | 324 | 3.0 | 12.0 | 0.00 | 0.90 | 0.29 | 67 | 1009.1 |
| 20260507224841 | 70 | 318 | 3.0 | 10.0 | 0.00 | 0.91 | 0.29 | 68 | 1009.0 |
| 20260507224335 | 71 | 5 | 2.0 | 9.0 | 0.00 | 0.91 | 0.29 | 67 | 1008.8 |
| 20260507223835 | 71 | 279 | 2.0 | 17.0 | 0.00 | 0.92 | 0.29 | 69 | 1008.8 |
| 20260507223607 | 72 | 345 | 2.0 | 17.0 | 0.00 | 0.92 | 0.29 | 65 | 1008.6 |
| 20260507222837 | 72 | 293 | 1.0 | 8.0 | 0.00 | 0.93 | 0.29 | 69 | 1008.5 |
| 20260507222336 | 73 | 282 | 1.0 | 8.0 | 0.00 | 0.94 | 0.29 | 69 | 1008.1 |
| 20260507221843 | 73 | 299 | 1.0 | 8.0 | 0.00 | 0.96 | 0.29 | 66 | 1007.9 |
| 20260507221334 | 74 | 343 | 1.0 | 10.0 | 0.00 | 0.96 | 0.29 | 67 | 1007.8 |
| 20260507220834 | 75 | 15 | 1.0 | 10.0 | 0.00 | 0.97 | 0.29 | 65 | 1007.7 |
| 20260507220333 | 75 | 322 | 0.0 | 4.0 | 0.00 | 0.97 | 0.29 | 69 | 1007.7 |
| 20260507215833 | 74 | 334 | 0.0 | 4.0 | 0.00 | 0.97 | 0.29 | 68 | 1007.7 |
| 20260507215604 | 73 | 309 | 1.0 | 6.0 | 0.00 | 0.97 | 0.29 | 69 | 1007.6 |
| 20260507214832 | 73 | 281 | 1.0 | 6.0 | 0.00 | 0.97 | 0.29 | 69 | 1007.6 |
| 20260507214331 | 73 | 9 | 1.0 | 8.0 | 0.00 | 0.97 | 0.29 | 69 | 1007.5 |
| 20260507214102 | 73 | 349 | 2.0 | 9.0 | 0.00 | 0.97 | 0.29 | 68 | 1007.4 |
| 20260507213330 | 73 | 328 | 2.0 | 9.0 | 0.00 | 0.97 | 0.29 | 67 | 1007.5 |
| 20260507212833 | 73 | 323 | 3.0 | 13.0 | 0.00 | 0.97 | 0.29 | 67 | 1007.3 |
| 20260507212326 | 73 | 340 | 2.0 | 13.0 | 0.00 | 0.97 | 0.29 | 69 | 1007.2 |
| 20260507211822 | 73 | 281 | 2.0 | 10.0 | 0.00 | 0.97 | 0.29 | 69 | 1007.3 |
| 20260507211314 | 73 | 275 | 2.0 | 10.0 | 0.00 | 0.97 | 0.29 | 70 | 1007.3 |
| 20260507210808 | 73 | 275 | 3.0 | 10.0 | 0.00 | 0.97 | 0.29 | 69 | 1007.2 |
| 20260507210303 | 74 | 5 | 2.0 | 12.0 | 0.00 | 0.97 | 0.29 | 69 | 1007.2 |
| 20260507205757 | 74 | 355 | 1.0 | 12.0 | 0.00 | 0.97 | 0.29 | 68 | 1007.2 |
| 20260507205250 | 75 | 327 | 2.0 | 10.0 | 0.00 | 0.97 | 0.29 | 70 | 1007.2 |
| 20260507205014 | 76 | 321 | 3.0 | 10.0 | 0.00 | 0.97 | 0.29 | 67 | 1007.0 |
| 20260507204509 | 78 | 346 | 2.0 | 9.0 | 0.00 | 0.97 | 0.29 | 65 | 1007.0 |
| 20260507203732 | 78 | 283 | 1.0 | 7.0 | 0.00 | 0.97 | 0.29 | 69 | 1006.9 |
| 20260507203226 | 77 | 254 | 1.0 | 4.0 | 0.00 | 0.97 | 0.29 | 71 | 1006.8 |
| 20260507202951 | 77 | 202 | 0.0 | 4.0 | 0.00 | 0.97 | 0.29 | 67 | 1006.7 |
| 20260507202215 | 76 | 232 | 0.0 | 3.0 | 0.00 | 0.97 | 0.29 | 72 | 1006.8 |
| 20260507201709 | 76 | 300 | 0.0 | 2.0 | 0.00 | 0.97 | 0.29 | 77 | 1006.8 |
| 20260507201203 | 76 | 305 | 0.0 | 2.0 | 0.00 | 0.97 | 0.29 | 78 | 1006.9 |
| 20260507200657 | 75 | 213 | 0.0 | 0.0 | 0.00 | 0.97 | 0.29 | 81 | 1007.0 |
| 20260507200151 | 75 | 213 | 0.0 | 4.0 | 0.00 | 0.97 | 0.29 | 81 | 1007.1 |
| 20260507195645 | 75 | 213 | 1.0 | 6.0 | 0.00 | 0.97 | 0.29 | 81 | 1007.2 |
| 20260507195138 | 75 | 205 | 1.0 | 6.0 | 0.00 | 0.97 | 0.29 | 83 | 1007.2 |
| 20260507194632 | 75 | 184 | 1.0 | 6.0 | 0.00 | 0.97 | 0.29 | 81 | 1007.1 |
| 20260507193620 | 74 | 182 | 4.0 | 9.0 | 0.00 | 0.97 | 0.29 | 79 | 1007.3 |
| 20260507193114 | 75 | 190 | 4.0 | 9.0 | 0.00 | 0.97 | 0.29 | 80 | 1007.3 |
| 20260507192609 | 76 | 206 | 3.0 | 8.0 | 0.00 | 0.97 | 0.29 | 80 | 1007.6 |
| 20260507192102 | 75 | 196 | 1.0 | 7.0 | 0.00 | 0.97 | 0.29 | 77 | 1007.2 |
| 20260507191828 | 75 | 175 | 0.0 | 8.0 | 0.00 | 0.97 | 0.29 | 78 | 1007.3 |
| 20260507191051 | 74 | 167 | 0.0 | 8.0 | 0.00 | 0.97 | 0.29 | 77 | 1007.2 |
| 20260507190544 | 75 | 192 | 0.0 | 5.0 | 0.00 | 0.97 | 0.29 | 78 | 1007.4 |
| 20260507190039 | 75 | 217 | 0.0 | 7.0 | 0.00 | 0.97 | 0.29 | 78 | 1007.6 |
| 20260507185533 | 75 | 278 | 0.0 | 7.0 | 0.00 | 0.97 | 0.29 | 75 | 1007.6 |
| 20260507185026 | 76 | 288 | 1.0 | 6.0 | 0.00 | 0.97 | 0.29 | 77 | 1007.6 |
| 20260507184521 | 76 | 296 | 2.0 | 11.0 | 0.00 | 0.97 | 0.29 | 76 | 1007.5 |
| 20260507184014 | 76 | 271 | 2.0 | 11.0 | 0.00 | 0.97 | 0.29 | 74 | 1007.9 |
| 20260507183508 | 76 | 196 | 1.0 | 8.0 | 0.00 | 0.97 | 0.29 | 74 | 1007.8 |
| 20260507183002 | 76 | 222 | 2.0 | 10.0 | 0.00 | 0.97 | 0.29 | 72 | 1007.9 |
| 20260507182727 | 76 | 277 | 2.0 | 10.0 | 0.00 | 0.97 | 0.29 | 73 | 1007.8 |
| 20260507181950 | 76 | 213 | 2.0 | 9.0 | 0.00 | 0.97 | 0.29 | 78 | 1007.6 |
| 20260507181445 | 75 | 281 | 2.0 | 9.0 | 0.00 | 0.97 | 0.29 | 77 | 1007.7 |
| 20260507180939 | 75 | 195 | 2.0 | 9.0 | 0.00 | 0.97 | 0.29 | 74 | 1007.6 |
| 20260507180436 | 75 | 288 | 2.0 | 9.0 | 0.00 | 0.97 | 0.29 | 77 | 1007.7 |
| 20260507175936 | 75 | 232 | 1.0 | 9.0 | 0.00 | 0.97 | 0.29 | 79 | 1007.7 |
| 20260507175435 | 75 | 202 | 2.0 | 8.0 | 0.00 | 0.97 | 0.29 | 79 | 1007.7 |
| 20260507175204 | 74 | 206 | 3.0 | 12.0 | 0.00 | 0.97 | 0.29 | 76 | 1007.8 |
| 20260507174432 | 74 | 179 | 3.0 | 12.0 | 0.00 | 0.97 | 0.29 | 81 | 1007.9 |
| 20260507173933 | 74 | 167 | 3.0 | 10.0 | 0.00 | 0.97 | 0.29 | 79 | 1007.9 |
| 20260507173433 | 74 | 214 | 2.0 | 8.0 | 0.00 | 0.97 | 0.29 | 80 | 1007.9 |
| 20260507172934 | 73 | 228 | 1.0 | 6.0 | 0.00 | 0.97 | 0.29 | 86 | 1007.8 |
| 20260507172430 | 73 | 211 | 2.0 | 9.0 | 0.00 | 0.97 | 0.29 | 84 | 1007.8 |
| 20260507171928 | 72 | 189 | 3.0 | 9.0 | 0.00 | 0.97 | 0.29 | 83 | 1007.9 |
| 20260507171431 | 72 | 183 | 3.0 | 8.0 | 0.00 | 0.97 | 0.29 | 83 | 1008.0 |
| 20260507170930 | 72 | 191 | 2.0 | 8.0 | 0.00 | 0.97 | 0.29 | 83 | 1008.1 |
| 20260507170427 | 72 | 163 | 1.0 | 8.0 | 0.00 | 0.97 | 0.29 | 86 | 1008.4 |
| 20260507165924 | 72 | 226 | 3.0 | 11.0 | 0.00 | 0.97 | 0.29 | 89 | 1008.6 |
| 20260507165425 | 71 | 207 | 3.0 | 11.0 | 0.00 | 0.97 | 0.29 | 85 | 1008.6 |
| 20260507164925 | 71 | 252 | 2.0 | 9.0 | 0.00 | 0.98 | 0.29 | 88 | 1008.8 |
| 20260507164657 | 71 | 205 | 4.0 | 11.0 | 0.00 | 0.99 | 0.29 | 87 | 1008.7 |
| 20260507163920 | 70 | 190 | 4.0 | 11.0 | 0.00 | 1.00 | 0.29 | 89 | 1008.6 |
| 20260507163414 | 70 | 205 | 3.0 | 9.0 | 0.00 | 1.01 | 0.29 | 89 | 1008.6 |
| 20260507162913 | 70 | 196 | 1.0 | 9.0 | 0.00 | 1.02 | 0.29 | 88 | 1008.3 |
| 20260507162413 | 69 | 187 | 2.0 | 9.0 | 0.00 | 1.02 | 0.29 | 92 | 1008.5 |
| 20260507161912 | 69 | 182 | 3.0 | 10.0 | 0.00 | 1.03 | 0.29 | 89 | 1008.6 |
| 20260507161412 | 69 | 167 | 3.0 | 12.0 | 0.00 | 1.05 | 0.29 | 92 | 1008.8 |
| 20260507160910 | 69 | 203 | 2.0 | 12.0 | 0.00 | 1.06 | 0.29 | 91 | 1009.1 |
| 20260507160408 | 69 | 208 | 3.0 | 14.0 | 0.00 | 1.06 | 0.29 | 93 | 1009.2 |
| 20260507160139 | 69 | 172 | 4.0 | 14.0 | 0.00 | 1.07 | 0.29 | 94 | 1009.3 |
| 20260507155408 | 68 | 182 | 3.0 | 11.0 | 0.00 | 1.07 | 0.29 | 95 | 1009.2 |
| 20260507154909 | 68 | 203 | 1.0 | 8.0 | 0.00 | 1.07 | 0.29 | 97 | 1009.3 |
| 20260507154409 | 67 | 204 | 1.0 | 6.0 | 0.00 | 1.09 | 0.29 | 97 | 1009.2 |
| 20260507154138 | 67 | 226 | 0.0 | 5.0 | 0.00 | 1.09 | 0.29 | 97 | 1009.4 |
| 20260507153405 | 67 | 191 | 0.0 | 5.0 | 0.00 | 1.09 | 0.29 | 97 | 1009.5 |
| 20260507151905 | 67 | 221 | 0.0 | 5.0 | 0.00 | 1.09 | 0.29 | 97 | 1009.4 |
| 20260507151404 | 67 | 212 | 1.0 | 5.0 | 0.00 | 1.09 | 0.29 | 98 | 1009.5 |
| 20260507150906 | 67 | 236 | 0.0 | 5.0 | 0.00 | 1.09 | 0.29 | 97 | 1009.2 |
| 20260507150405 | 66 | 251 | 0.0 | 5.0 | 0.00 | 1.09 | 0.29 | 99 | 1009.2 |
| 20260507145905 | 66 | 213 | 1.0 | 6.0 | 0.00 | 1.09 | 0.29 | 99 | 1009.0 |
| 20260507145402 | 66 | 183 | 1.0 | 6.0 | 0.00 | 1.09 | 0.29 | 99 | 1008.8 |
| 20260507145131 | 66 | 220 | 0.0 | 0.0 | 0.00 | 1.09 | 0.29 | 100 | 1008.7 |
| 20260507144402 | 65 | 220 | 0.0 | 0.0 | 0.01 | 1.09 | 0.29 | 100 | 1008.5 |
| 20260507143902 | 65 | 220 | 0.0 | 0.0 | 0.01 | 1.09 | 0.29 | 100 | 1008.7 |
| 20260507143401 | 65 | 219 | 0.0 | 4.0 | 0.02 | 1.09 | 0.29 | 100 | 1008.8 |
| 20260507143133 | 64 | 219 | 0.0 | 4.0 | 0.02 | 1.09 | 0.29 | 100 | 1008.8 |
| 20260507142400 | 65 | 193 | 0.0 | 0.0 | 0.03 | 1.09 | 0.29 | 100 | 1009.0 |
| 20260507141857 | 64 | 193 | 0.0 | 0.0 | 0.03 | 1.09 | 0.29 | 100 | 1009.2 |
| 20260507141356 | 64 | 193 | 0.0 | 0.0 | 0.03 | 1.09 | 0.29 | 100 | 1009.1 |
| 20260507140354 | 64 | 193 | 0.0 | 0.0 | 0.04 | 1.09 | 0.29 | 100 | 1009.1 |
| 20260507135855 | 64 | 193 | 0.0 | 0.0 | 0.05 | 1.09 | 0.29 | 100 | 1009.4 |
| 20260507135353 | 64 | 192 | 0.0 | 2.0 | 0.05 | 1.09 | 0.29 | 100 | 1009.4 |
| 20260507134850 | 64 | 202 | 0.0 | 2.0 | 0.06 | 1.09 | 0.29 | 100 | 1009.9 |
| 20260507134351 | 64 | 237 | 0.0 | 0.0 | 0.05 | 1.08 | 0.28 | 100 | 1009.9 |
| 20260507133844 | 64 | 241 | 0.0 | 0.0 | 0.05 | 1.08 | 0.28 | 100 | 1010.0 |
| 20260507133339 | 64 | 239 | 0.0 | 0.0 | 0.04 | 1.07 | 0.27 | 100 | 1010.3 |
| 20260507132833 | 64 | 238 | 0.0 | 0.0 | 0.04 | 1.07 | 0.27 | 100 | 1010.2 |
| 20260507132326 | 64 | 238 | 0.0 | 0.0 | 0.04 | 1.06 | 0.26 | 100 | 1009.9 |
| 20260507131315 | 64 | 238 | 0.0 | 0.0 | 0.03 | 1.05 | 0.26 | 100 | 1009.5 |
| 20260507130809 | 64 | 238 | 0.0 | 0.0 | 0.03 | 1.05 | 0.25 | 100 | 1009.3 |
| 20260507130303 | 64 | 238 | 0.0 | 0.0 | 0.03 | 1.05 | 0.25 | 100 | 1009.3 |
| 20260507125756 | 64 | 238 | 0.0 | 0.0 | 0.02 | 1.04 | 0.24 | 100 | 1009.3 |
| 20260507125250 | 64 | 238 | 0.0 | 0.0 | 0.01 | 1.03 | 0.24 | 100 | 1009.3 |
| 20260507124744 | 64 | 238 | 0.0 | 0.0 | 0.02 | 1.03 | 0.23 | 100 | 1009.5 |
| 20260507124239 | 64 | 238 | 0.0 | 0.0 | 0.02 | 1.03 | 0.23 | 100 | 1009.2 |
| 20260507123732 | 64 | 238 | 0.0 | 0.0 | 0.03 | 1.03 | 0.23 | 100 | 1009.1 |
| 20260507123226 | 63 | 276 | 0.0 | 0.0 | 0.03 | 1.03 | 0.23 | 100 | 1009.1 |
| 20260507122721 | 63 | 276 | 0.0 | 0.0 | 0.03 | 1.02 | 0.23 | 100 | 1009.1 |
| 20260507122447 | 63 | 276 | 0.0 | 0.0 | 0.04 | 1.02 | 0.22 | 100 | 1009.0 |
| 20260507121940 | 63 | 276 | 0.0 | 0.0 | 0.04 | 1.02 | 0.22 | 100 | 1009.0 |
| 20260507121203 | 63 | 276 | 0.0 | 0.0 | 0.05 | 1.02 | 0.22 | 100 | 1009.1 |
| 20260507120927 | 63 | 276 | 0.0 | 0.0 | 0.07 | 1.02 | 0.22 | 100 | 1009.3 |
| 20260507120150 | 63 | 276 | 0.0 | 0.0 | 0.08 | 1.02 | 0.22 | 100 | 1009.3 |
| 20260507115645 | 63 | 276 | 0.0 | 0.0 | 0.08 | 1.02 | 0.22 | 100 | 1009.4 |
| 20260507115139 | 63 | 276 | 0.0 | 0.0 | 0.08 | 1.02 | 0.22 | 100 | 1009.5 |
| 20260507114632 | 63 | 276 | 0.0 | 0.0 | 0.07 | 1.01 | 0.21 | 100 | 1010.2 |
| 20260507114359 | 63 | 276 | 0.0 | 0.0 | 0.07 | 1.01 | 0.21 | 100 | 1010.6 |
| 20260507113851 | 63 | 276 | 0.0 | 0.0 | 0.06 | 1.00 | 0.20 | 100 | 1010.6 |